EW9931 Weather Reports


time (UTC)temp
F
wind
direction
speed
knots
gust
knots
rain 1hr
in
rain 24hr
in
rain mn
in
humidity
%
barometer
mb
20260505081514 33 189 0.0 0.0 0.00 0.00 0.01 88 1007.1
20260505080008 33 216 0.0 0.0 0.00 0.00 0.00 88 1007.2
20260505074509 33 220 0.0 0.0 0.00 0.00 0.00 88 1007.5
20260505073007 33 133 0.0 0.0 0.00 0.00 0.00 88 1007.7
20260505071506 33 133 0.0 0.0 0.00 0.00 0.00 88 1007.8
20260505070006 33 220 0.0 0.0 0.00 0.00 0.00 88 1007.2
20260505064505 33 220 0.0 0.0 0.00 0.00 0.00 88 1007.2
20260505063005 33 233 0.0 0.0 0.00 0.00 0.00 88 1007.3
20260505061505 33 128 0.9 0.0 0.00 0.00 0.00 88 1007.4
20260505060004 33 219 0.0 0.0 0.00 0.00 0.00 88 1007.6
20260505054504 33 217 0.9 0.0 0.00 0.00 0.00 88 1007.6
20260505053004 33 257 0.0 0.0 0.00 0.00 0.00 88 1007.3
20260505051501 33 138 0.9 0.0 0.00 0.00 0.00 88 1007.5
20260505041610 33 176 0.0 0.0 0.00 0.00 0.00 87 1007.6
20260505040104 33 151 0.0 0.0 0.00 0.00 0.00 87 1007.5
20260505034558 34 158 0.9 0.0 0.00 0.00 0.00 87 1007.4
20260505033058 34 210 0.9 0.0 0.00 0.00 0.00 87 1007.3
20260505031604 34 155 0.0 0.0 0.00 0.00 0.00 86 1007.2
20260505030104 34 131 0.9 0.0 0.00 0.00 0.00 86 1007.8
20260505024607 34 188 0.9 0.0 0.00 0.00 0.00 85 1007.8
20260505023059 34 215 0.0 0.0 0.00 0.00 0.00 82 1007.8
20260505021558 34 181 0.0 0.0 0.00 0.00 0.00 82 1007.8
20260505020103 34 216 2.6 0.0 0.00 0.00 0.00 82 1008.4
20260505014554 34 224 0.9 0.0 0.00 0.00 0.00 83 1008.5
20260505013053 35 152 0.0 0.0 0.00 0.00 0.00 85 1008.5
20260505011552 35 150 0.9 0.0 0.00 0.00 0.00 85 1008.5
20260505010107 35 195 0.9 0.0 0.00 0.00 0.00 85 1008.1
20260505004551 35 200 0.9 0.0 0.00 0.00 0.00 83 1008.3
20260505003052 35 172 0.9 0.0 0.00 0.00 0.00 82 1008.3
20260505001550 35 196 0.9 0.0 0.00 0.00 0.00 80 1008.1
20260505000054 36 148 0.9 0.0 0.00 0.00 0.00 77 1007.6
20260504234551 35 223 0.9 0.0 0.00 0.00 0.00 76 1007.8
20260504233054 36 213 0.9 0.0 0.00 0.00 0.00 77 1007.7
20260504231548 36 206 0.9 0.0 0.00 0.00 0.00 76 1007.7
20260504230107 36 224 1.7 0.0 0.00 0.00 0.00 75 1007.9
20260504224600 36 182 3.5 0.0 0.00 0.00 0.00 77 1007.9
20260504223047 36 193 3.5 0.0 0.00 0.00 0.00 75 1007.8
20260504221546 37 141 6.1 0.0 0.00 0.00 0.00 68 1007.3
20260504220052 38 215 3.5 0.0 0.00 0.00 0.00 70 1007.7
20260504214546 37 203 5.2 0.0 0.00 0.00 0.00 69 1008.1
20260504213043 38 213 4.3 0.0 0.00 0.00 0.00 68 1008.1
20260504211543 38 206 4.3 0.0 0.00 0.00 0.00 66 1008.4
20260504210055 39 205 2.6 0.0 0.00 0.00 0.00 65 1008.6
20260504204548 39 186 2.6 0.0 0.00 0.00 0.00 64 1008.9
20260504203044 39 205 2.6 0.0 0.00 0.00 0.00 63 1008.5
20260504201546 38 202 3.5 0.0 0.00 0.00 0.00 64 1009.1
20260504200050 38 202 3.5 0.0 0.00 0.00 0.00 64 1008.9
20260504194539 38 199 4.3 0.0 0.00 0.00 0.00 65 1009.0
20260504193043 41 203 2.6 0.0 0.00 0.00 0.00 60 1008.3
20260504191539 40 148 3.5 0.0 0.00 0.00 0.00 60 1008.4
20260504190037 40 212 2.6 0.0 0.00 0.00 0.00 58 1007.6
20260504184539 40 205 2.6 0.0 0.00 0.00 0.00 54 1007.8
20260504183037 41 203 2.6 0.0 0.00 0.00 0.00 58 1007.6
20260504181535 41 200 0.9 0.0 0.00 0.00 0.00 57 1007.6
20260504180035 40 133 1.7 0.0 0.00 0.00 0.00 56 1007.6
20260504174534 40 192 0.9 0.0 0.00 0.00 0.00 52 1007.2
20260504173034 41 203 0.9 0.0 0.00 0.00 0.00 53 1006.9
20260504171532 41 117 0.9 0.0 0.00 0.00 0.00 51 1007.0